DW7889 Weather Reports


Display with metric or nautical units.
time (UTC)temp
F
wind
direction
speed
MPH
gust
MPH
rain 1hr
in
rain 24hr
in
rain mn
in
humidity
%
barometer
mb
20260904133053 53 185 7.0 11.0 0.00 0.00 0.00 84 1018.1
20260904132539 53 124 6.0 11.0 0.00 0.00 0.00 84 1018.1
20260904132039 53 118 7.0 10.0 0.00 0.00 0.00 87 1018.2
20260904131537 52 165 6.0 10.0 0.00 0.00 0.00 86 1018.2
20260904131040 52 126 5.0 9.0 0.00 0.00 0.00 87 1018.2
20260904130557 52 161 4.0 9.0 0.00 0.00 0.00 87 1018.3
20260904130036 52 173 4.0 8.0 0.00 0.00 0.00 87 1018.4
20260904125538 52 101 5.0 9.0 0.00 0.00 0.00 88 1018.4
20260904125041 51 141 4.0 9.0 0.00 0.00 0.00 87 1018.3
20260904124541 52 174 3.0 6.0 0.00 0.00 0.00 88 1018.4
20260904124103 51 147 4.0 7.0 0.00 0.00 0.00 89 1018.4
20260904123544 51 157 3.0 7.0 0.00 0.00 0.00 90 1018.4
20260904123048 51 174 4.0 7.0 0.00 0.00 0.00 90 1018.4
20260904122531 51 141 3.0 7.0 0.00 0.00 0.00 91 1018.2
20260904122033 51 160 5.0 9.0 0.00 0.00 0.00 90 1018.2
20260904121553 51 172 5.0 9.0 0.00 0.00 0.00 89 1018.1
20260904121036 51 145 4.0 8.0 0.00 0.00 0.00 91 1018.1
20260904120536 50 191 4.0 8.0 0.00 0.00 0.00 91 1018.1
20260904120041 50 181 5.0 8.0 0.00 0.00 0.00 92 1018.2
20260904115543 50 200 4.0 8.0 0.00 0.00 0.00 93 1018.3
20260904115046 50 160 3.0 8.0 0.00 0.00 0.00 93 1018.3
20260904114528 50 200 5.0 11.0 0.00 0.00 0.00 94 1018.2
20260904114029 50 172 6.0 11.0 0.00 0.00 0.00 94 1018.3
20260904113536 50 177 5.0 8.0 0.00 0.00 0.00 94 1018.2
20260904113038 50 158 5.0 8.0 0.00 0.00 0.00 94 1018.1
20260904112539 50 238 5.0 10.0 0.00 0.00 0.00 93 1018.3
20260904112042 50 174 4.0 10.0 0.00 0.00 0.00 93 1018.4
20260904111542 50 204 6.0 10.0 0.00 0.00 0.00 93 1018.4
20260904111041 51 177 5.0 10.0 0.00 0.00 0.00 93 1018.5
20260904110544 51 177 7.0 10.0 0.00 0.00 0.00 93 1018.4
20260904110043 51 216 6.0 9.0 0.00 0.00 0.00 93 1018.4
20260904105544 51 201 6.0 9.0 0.00 0.00 0.00 93 1018.3
20260904105045 51 205 6.0 9.0 0.00 0.00 0.00 93 1018.4
20260904104544 51 206 7.0 8.0 0.00 0.00 0.00 93 1018.4
20260904104104 51 212 4.0 8.0 0.00 0.00 0.00 94 1018.2
20260904103543 51 172 4.0 8.0 0.00 0.00 0.00 94 1018.2
20260904103043 51 153 5.0 9.0 0.00 0.00 0.00 94 1018.1
20260904102605 51 176 5.0 11.0 0.00 0.00 0.00 94 1018.1
20260904102029 51 196 7.0 11.0 0.00 0.00 0.00 94 1018.0
20260904101550 51 213 5.0 9.0 0.00 0.00 0.00 94 1018.0
20260904101047 51 166 5.0 12.0 0.00 0.00 0.00 94 1017.7
20260904100545 51 172 5.0 12.0 0.00 0.00 0.00 95 1017.9
20260904100047 51 204 5.0 11.0 0.00 0.00 0.00 95 1017.6
20260904095526 51 183 5.0 11.0 0.00 0.00 0.00 95 1017.5
20260904095030 51 202 6.0 10.0 0.00 0.00 0.00 95 1017.4
20260904094532 51 186 7.0 10.0 0.00 0.00 0.00 95 1017.4
20260904094056 51 207 5.0 9.0 0.00 0.00 0.00 95 1017.1
20260904093536 51 165 6.0 9.0 0.00 0.00 0.00 95 1017.0
20260904093039 52 219 5.0 9.0 0.00 0.00 0.00 95 1017.1
20260904092540 52 158 3.0 6.0 0.00 0.00 0.00 95 1017.1
20260904092043 52 222 4.0 7.0 0.00 0.00 0.00 95 1017.1
20260904091544 52 201 4.0 7.0 0.00 0.00 0.00 95 1017.0
20260904091030 52 196 5.0 6.0 0.00 0.00 0.00 95 1016.9
20260904090531 52 207 4.0 6.0 0.00 0.00 0.00 95 1017.0
20260904090036 52 172 4.0 8.0 0.00 0.00 0.00 95 1016.9
20260904085542 52 192 4.0 11.0 0.00 0.00 0.00 95 1016.8
20260904085027 52 195 8.0 11.0 0.00 0.00 0.00 95 1016.8
20260904084611 52 234 6.0 10.0 0.00 0.00 0.00 95 1017.0
20260904084048 52 186 5.0 10.0 0.00 0.00 0.00 95 1016.7
20260904083608 52 224 6.0 16.0 0.00 0.00 0.00 95 1016.7
20260904083029 52 186 8.0 16.0 0.00 0.00 0.00 95 1016.7
20260904082552 52 217 8.0 13.0 0.00 0.00 0.00 95 1016.6
20260904082051 52 196 7.0 13.0 0.00 0.00 0.00 95 1016.6
20260904081533 52 212 9.0 13.0 0.00 0.00 0.00 95 1016.6
20260904081033 52 183 4.0 10.0 0.00 0.00 0.00 96 1016.5
20260904080534 52 171 6.0 10.0 0.00 0.00 0.00 96 1016.3
20260904080038 52 213 7.0 9.0 0.00 0.00 0.00 96 1016.2
20260904075540 52 197 5.0 8.0 0.00 0.00 0.00 96 1016.3
20260904075041 52 162 4.0 9.0 0.00 0.00 0.00 96 1016.1
20260904074542 52 164 5.0 9.0 0.00 0.00 0.00 96 1016.3
20260904074049 52 155 3.0 7.0 0.00 0.00 0.00 96 1016.2
20260904073551 53 167 4.0 8.0 0.00 0.00 0.00 96 1016.3
20260904073031 52 188 3.0 9.0 0.00 0.00 0.00 96 1016.2
20260904072533 52 195 7.0 11.0 0.00 0.00 0.00 96 1016.1
20260904072036 52 174 4.0 11.0 0.00 0.00 0.00 96 1016.0
20260904071540 53 211 7.0 15.0 0.00 0.00 0.00 96 1016.0
20260904071044 53 184 10.0 15.0 0.00 0.00 0.00 96 1015.9
20260904070525 54 168 6.0 11.0 0.00 0.00 0.00 96 1015.8
20260904070048 54 180 4.0 8.0 0.00 0.00 0.00 96 1015.5
20260904065547 54 170 4.0 8.0 0.00 0.00 0.00 96 1015.6
20260904065029 54 172 4.0 8.0 0.00 0.00 0.00 96 1015.6
20260904064531 54 203 5.0 8.0 0.00 0.00 0.00 96 1015.6
20260904064034 54 211 4.0 8.0 0.00 0.00 0.00 96 1015.6
20260904062558 55 219 327.0 327.0 0.00 0.00 0.00 96 1015.2
20260904061538 55 216 3.0 8.0 0.00 0.00 0.00 96 1015.5
20260904061037 55 219 6.0 9.0 0.00 0.00 0.00 96 1015.4
20260904060538 56 204 5.0 7.0 0.00 0.00 0.00 96 1015.3
20260904060043 56 190 3.0 6.0 0.00 0.00 0.00 96 1015.2
20260904055530 57 194 4.0 5.0 0.00 0.00 0.00 96 1015.1
20260904055032 57 192 4.0 5.0 0.00 0.00 0.00 96 1015.0
20260904054534 57 236 2.0 3.0 0.00 0.00 0.00 96 1015.0
20260904054036 57 255 1.0 2.0 0.00 0.00 0.00 96 1014.9
20260904053558 57 255 0.0 2.0 0.00 0.00 0.00 96 1014.9
20260904053041 57 255 0.0 4.0 0.00 0.00 0.00 96 1015.0
20260904052543 57 255 1.0 4.0 0.00 0.00 0.00 96 1015.1
20260904052105 56 166 0.0 2.0 0.00 0.00 0.00 96 1015.2
20260904051546 56 154 1.0 2.0 0.00 0.00 0.00 96 1015.2
20260904051049 56 179 0.0 0.0 0.00 0.00 0.00 96 1015.1
20260904050530 56 123 0.0 0.0 0.00 0.00 0.00 96 1015.1
20260904050031 56 123 0.0 0.0 0.00 0.00 0.00 96 1015.3
20260904045553 56 123 0.0 0.0 0.00 0.00 0.00 96 1015.2
20260904045030 56 123 0.0 1.0 0.00 0.00 0.00 96 1015.2
20260904044533 56 123 0.0 2.0 0.00 0.00 0.00 96 1015.4
20260904044038 56 123 0.0 3.0 0.00 0.00 0.00 95 1015.5
20260904043538 56 124 2.0 4.0 0.00 0.00 0.00 95 1015.5
20260904043028 56 128 2.0 4.0 0.00 0.00 0.00 96 1015.6
20260904042532 56 188 2.0 4.0 0.00 0.00 0.00 95 1015.5
20260904042032 56 134 2.0 5.0 0.00 0.00 0.00 96 1015.4
20260904041534 56 170 3.0 4.0 0.00 0.00 0.00 96 1015.5
20260904041034 56 188 2.0 4.0 0.00 0.00 0.00 95 1015.5
20260904040558 56 166 2.0 4.0 0.00 0.00 0.00 95 1015.8
20260904040041 56 278 2.0 3.0 0.00 0.00 0.00 95 1015.8
20260904035601 56 264 1.0 5.0 0.00 0.00 0.00 95 1015.9
20260904035042 56 249 3.0 5.0 0.00 0.00 0.00 95 1015.9
20260904034528 56 218 3.0 5.0 0.00 0.00 0.00 95 1015.8
20260904034029 56 287 3.0 5.0 0.00 0.00 0.00 95 1015.8
20260904033531 57 240 3.0 5.0 0.00 0.00 0.00 95 1015.6
20260904033033 57 203 2.0 5.0 0.00 0.00 0.00 95 1015.6
20260904032554 57 250 2.0 3.0 0.00 0.00 0.00 95 1015.5
20260904032036 57 325 0.0 2.0 0.00 0.00 0.00 95 1015.3
20260904031542 57 309 0.0 2.0 0.00 0.00 0.00 95 1015.1
20260904031045 57 245 0.0 3.0 0.00 0.00 0.00 95 1015.3
20260904030545 57 255 1.0 3.0 0.00 0.00 0.00 95 1015.4
20260904030048 57 246 1.0 4.0 0.00 0.00 0.00 95 1015.5
20260904025527 57 208 3.0 4.0 0.00 0.00 0.00 95 1015.6
20260904025029 57 272 2.0 4.0 0.00 0.00 0.00 95 1015.6
20260904024532 57 252 2.0 6.0 0.00 0.00 0.00 95 1015.6
20260904024036 57 260 4.0 6.0 0.00 0.00 0.00 94 1015.6
20260904023557 57 264 3.0 7.0 0.00 0.00 0.00 94 1015.5
20260904023038 58 231 5.0 7.0 0.00 0.00 0.00 94 1015.5
20260904022540 58 177 2.0 7.0 0.00 0.00 0.00 94 1015.4
20260904022043 58 216 2.0 6.0 0.00 0.00 0.00 94 1015.3
20260904021547 58 92 0.0 3.0 0.00 0.00 0.00 94 1015.2
20260904021032 58 92 0.0 4.0 0.00 0.00 0.00 94 1015.1
20260904020535 58 86 2.0 4.0 0.00 0.00 0.00 94 1015.1
20260904020037 58 115 2.0 4.0 0.00 0.00 0.00 93 1015.1
20260904015539 59 141 1.0 4.0 0.00 0.00 0.00 93 1015.1
20260904015039 59 205 1.0 4.0 0.00 0.00 0.00 93 1015.2
20260904014540 59 225 2.0 4.0 0.00 0.00 0.00 92 1015.3
20260904014041 59 231 2.0 5.0 0.00 0.00 0.00 92 1015.3
20260904013542 59 215 3.0 5.0 0.00 0.00 0.00 91 1015.2
20260904013044 59 199 2.0 6.0 0.00 0.00 0.00 91 1015.2
20260904012546 60 276 3.0 6.0 0.00 0.00 0.00 90 1015.3
20260904012047 60 252 5.0 6.0 0.00 0.00 0.00 89 1015.4
20260904011546 61 245 4.0 6.0 0.00 0.00 0.00 88 1015.6
20260904011028 61 199 4.0 6.0 0.00 0.00 0.00 87 1015.5
20260904010535 62 188 2.0 7.0 0.00 0.00 0.00 85 1015.6
20260904010037 63 239 5.0 7.0 0.00 0.00 0.00 82 1015.5
20260904005556 64 217 5.0 6.0 0.00 0.00 0.00 80 1015.5
20260904005037 65 210 3.0 6.0 0.00 0.00 0.00 78 1015.5
20260904004600 65 260 0.0 2.0 0.00 0.00 0.00 77 1015.4
20260904004031 65 301 0.0 3.0 0.00 0.00 0.00 77 1015.4
20260904003533 65 321 1.0 3.0 0.00 0.00 0.00 77 1015.3
20260904003035 65 249 1.0 3.0 0.00 0.00 0.00 76 1015.3
20260904002538 65 300 1.0 4.0 0.00 0.00 0.00 76 1015.2
20260904002059 65 307 0.0 4.0 0.00 0.00 0.00 75 1015.3
20260904000618 66 219 327.0 327.0 0.00 0.00 0.00 73 1014.9
20260903235035 67 255 1.0 10.0 0.00 0.00 0.00 70 1015.3
20260903234534 68 207 5.0 10.0 0.00 0.00 0.00 69 1015.3
20260903234055 68 295 2.0 4.0 0.00 0.00 0.00 68 1015.3
20260903233538 68 329 3.0 4.0 0.00 0.00 0.00 68 1015.3
20260903233039 68 344 1.0 4.0 0.00 0.00 0.00 68 1015.3
20260903232541 68 354 1.0 4.0 0.00 0.00 0.00 68 1015.2
20260903232043 68 1 2.0 4.0 0.00 0.00 0.00 68 1015.1
20260903231545 68 349 2.0 5.0 0.00 0.00 0.00 68 1015.0
20260903231029 68 319 2.0 5.0 0.00 0.00 0.00 68 1014.9
20260903230534 68 348 2.0 5.0 0.00 0.00 0.00 68 1014.8
20260903230039 68 338 3.0 5.0 0.00 0.00 0.00 68 1014.6
20260903225540 68 354 4.0 6.0 0.00 0.00 0.00 68 1014.6
20260903225040 68 2 3.0 6.0 0.00 0.00 0.00 67 1014.6
20260903224603 69 359 3.0 5.0 0.00 0.00 0.00 67 1014.6
20260903224100 69 358 3.0 6.0 0.00 0.00 0.00 66 1014.6
20260903223543 69 359 3.0 6.0 0.00 0.00 0.00 66 1014.6
20260903223045 69 338 2.0 4.0 0.00 0.00 0.00 66 1014.6
20260903222548 69 352 3.0 4.0 0.00 0.00 0.00 66 1014.6
20260903222030 69 356 2.0 4.0 0.00 0.00 0.00 66 1014.6
20260903221534 69 342 2.0 5.0 0.00 0.00 0.00 66 1014.6
20260903221036 69 347 2.0 5.0 0.00 0.00 0.00 65 1014.5
20260903220535 69 353 2.0 4.0 0.00 0.00 0.00 65 1014.5
20260903220041 69 326 2.0 4.0 0.00 0.00 0.00 65 1014.5
20260903215541 69 349 1.0 4.0 0.00 0.00 0.00 64 1014.5
20260903215044 69 333 2.0 4.0 0.00 0.00 0.00 64 1014.5
20260903214607 70 315 1.0 5.0 0.00 0.00 0.00 64 1014.4
20260903214033 70 332 2.0 5.0 0.00 0.00 0.00 64 1014.4
20260903213554 70 274 1.0 6.0 0.00 0.00 0.00 63 1014.4
20260903213035 70 355 3.0 7.0 0.00 0.00 0.00 63 1014.4
20260903212537 70 348 2.0 7.0 0.00 0.00 0.00 62 1014.3
20260903212100 70 336 3.0 4.0 0.00 0.00 0.00 62 1014.3
20260903211543 70 331 2.0 4.0 0.00 0.00 0.00 61 1014.3
20260903211045 70 358 3.0 5.0 0.00 0.00 0.00 61 1014.1
20260903210547 71 351 3.0 6.0 0.00 0.00 0.00 61 1014.0
20260903210030 71 354 4.0 7.0 0.00 0.00 0.00 60 1013.9
20260903205555 71 1 3.0 8.0 0.00 0.00 0.00 59 1013.9
20260903205055 71 350 3.0 9.0 0.00 0.00 0.00 59 1013.9
20260903204536 72 352 4.0 10.0 0.00 0.00 0.00 58 1013.9
20260903204036 72 349 6.0 10.0 0.00 0.00 0.00 58 1013.8
20260903203557 72 356 4.0 9.0 0.00 0.00 0.00 58 1013.8
20260903203038 73 1 5.0 9.0 0.00 0.00 0.00 57 1013.7
20260903202544 73 316 4.0 14.0 0.00 0.00 0.00 56 1013.6
20260903202028 73 347 5.0 14.0 0.00 0.00 0.00 55 1013.6
20260903201534 73 359 5.0 15.0 0.00 0.00 0.00 55 1013.4
20260903201035 74 360 6.0 17.0 0.00 0.00 0.00 54 1013.4
20260903200557 74 9 6.0 15.0 0.00 0.00 0.00 53 1013.5
20260903200039 74 1 7.0 15.0 0.00 0.00 0.00 53 1013.4
20260903195541 74 301 7.0 15.0 0.00 0.00 0.00 53 1013.5
20260903195101 74 336 8.0 15.0 0.00 0.00 0.00 54 1013.4
20260903194541 74 333 7.0 14.0 0.00 0.00 0.00 54 1013.4
20260903194040 74 1 7.0 14.0 0.00 0.00 0.00 54 1013.3
20260903193544 73 298 7.0 16.0 0.00 0.00 0.00 55 1013.2
20260903193105 73 339 8.0 16.0 0.00 0.00 0.00 56 1013.3
20260903192544 73 336 5.0 11.0 0.00 0.00 0.00 56 1013.3
20260903192042 73 1 6.0 14.0 0.00 0.00 0.00 55 1013.4
20260903191544 73 360 5.0 14.0 0.00 0.00 0.00 55 1013.3
20260903191042 73 337 6.0 14.0 0.00 0.00 0.00 54 1013.3
20260903190524 74 360 8.0 19.0 0.00 0.00 0.00 54 1013.3
20260903190026 74 15 7.0 19.0 0.00 0.00 0.00 52 1013.3
20260903185531 75 327 9.0 17.0 0.00 0.00 0.00 51 1013.3
20260903185036 75 348 7.0 15.0 0.00 0.00 0.00 50 1013.3
20260903184537 75 39 7.0 15.0 0.00 0.00 0.00 51 1013.3
20260903184041 75 339 7.0 15.0 0.00 0.00 0.00 52 1013.4
20260903183540 74 291 5.0 14.0 0.00 0.00 0.00 53 1013.5
20260903183042 73 4 5.0 16.0 0.00 0.00 0.00 53 1013.5
20260903182543 73 330 8.0 14.0 0.00 0.00 0.00 52 1013.5
20260903182047 74 1 8.0 14.0 0.00 0.00 0.00 50 1013.5
20260903181549 74 313 7.0 17.0 0.00 0.00 0.00 50 1013.6
20260903181048 75 359 11.0 21.0 0.00 0.00 0.00 49 1013.5
20260903180548 75 307 11.0 24.0 0.00 0.00 0.00 49 1013.5
20260903180123 75 320 327.0 327.0 0.00 0.00 0.00 50 1013.5
20260903174544 75 352 8.0 21.0 0.00 0.00 0.00 50 1013.5
20260903174051 75 307 11.0 21.0 0.00 0.00 0.00 50 1013.5
20260903173607 75 337 10.0 20.0 0.00 0.00 0.00 52 1013.6
20260903173046 75 331 9.0 20.0 0.00 0.00 0.00 50 1013.7
20260903172546 75 360 10.0 21.0 0.00 0.00 0.00 51 1013.9
20260903172044 74 22 12.0 21.0 0.00 0.00 0.00 52 1013.9
20260903171605 74 1 9.0 19.0 0.00 0.00 0.00 54 1013.9
20260903171043 74 335 6.0 19.0 0.00 0.00 0.00 55 1014.0
20260903170541 74 342 7.0 20.0 0.00 0.00 0.00 55 1014.1
20260903170042 74 352 10.0 22.0 0.00 0.00 0.00 55 1014.3
20260903165547 74 359 12.0 22.0 0.00 0.00 0.00 54 1014.4
20260903165048 73 334 11.0 22.0 0.00 0.00 0.00 56 1014.5
20260903164549 73 359 11.0 21.0 0.00 0.00 0.00 55 1014.5
20260903164030 74 345 8.0 18.0 0.00 0.00 0.00 55 1014.6
20260903163532 73 359 6.0 21.0 0.00 0.00 0.00 56 1014.7
20260903163037 73 336 12.0 25.0 0.00 0.00 0.00 57 1014.6
20260903162541 73 334 10.0 22.0 0.00 0.00 0.00 57 1014.8
20260903162042 73 335 10.0 22.0 0.00 0.00 0.00 57 1015.0
20260903161544 73 327 12.0 22.0 0.00 0.00 0.00 56 1015.0
20260903161044 73 1 9.0 21.0 0.00 0.00 0.00 57 1015.1
20260903160603 73 327 10.0 21.0 0.00 0.00 0.00 58 1015.3
20260903160044 73 291 9.0 17.0 0.00 0.00 0.00 58 1015.4
20260903155542 72 10 8.0 23.0 0.00 0.00 0.00 59 1015.5
20260903155043 72 3 10.0 22.0 0.00 0.00 0.00 59 1015.6
20260903154544 72 360 9.0 24.0 0.00 0.00 0.00 59 1015.6
20260903154105 72 359 11.0 24.0 0.00 0.00 0.00 58 1015.6
20260903153531 72 13 9.0 20.0 0.00 0.00 0.00 59 1015.8
20260903153052 72 315 10.0 22.0 0.00 0.00 0.00 59 1016.0
20260903152552 72 328 12.0 21.0 0.00 0.00 0.00 58 1016.0
20260903152033 72 304 9.0 20.0 0.00 0.00 0.00 59 1016.1
20260903151535 71 342 10.0 28.0 0.00 0.00 0.00 60 1016.0
20260903151057 71 338 11.0 28.0 0.00 0.00 0.00 60 1016.0
20260903150537 71 355 12.0 22.0 0.00 0.00 0.00 60 1016.1
20260903150101 71 326 10.0 26.0 0.00 0.00 0.00 61 1016.2
20260903145559 71 1 11.0 27.0 0.00 0.00 0.00 60 1016.2
20260903145041 71 354 10.0 27.0 0.00 0.00 0.00 61 1016.3
20260903144539 71 328 11.0 20.0 0.00 0.00 0.00 61 1016.4
20260903144041 70 327 9.0 21.0 0.00 0.00 0.00 62 1016.4
20260903143542 70 307 12.0 21.0 0.00 0.00 0.00 63 1016.4
20260903143104 69 354 10.0 22.0 0.00 0.00 0.00 65 1016.4
20260903142540 69 3 11.0 22.0 0.00 0.00 0.00 65 1016.5
20260903142041 69 345 11.0 23.0 0.00 0.00 0.00 66 1016.5
20260903141541 68 340 11.0 21.0 0.00 0.00 0.00 66 1016.7
20260903141038 68 350 10.0 21.0 0.00 0.00 0.00 68 1016.6
20260903140539 68 360 9.0 21.0 0.00 0.00 0.00 69 1016.7
20260903140041 67 355 8.0 21.0 0.00 0.00 0.00 69 1016.8
20260903135540 67 18 9.0 16.0 0.00 0.00 0.00 70 1016.9
20260903135049 66 354 9.0 16.0 0.00 0.00 0.00 71 1017.1
20260903134608 66 353 9.0 21.0 0.00 0.00 0.00 71 1017.2
20260903134028 66 15 9.0 18.0 0.00 0.00 0.00 71 1017.3
20260903133552 66 4 10.0 19.0 0.00 0.00 0.00 71 1017.4